{"data":{"norad_id":64474,"epoch":"2026-05-25T05:19:34.790016Z","epoch_age_seconds":69959,"freshness":"FRESH","line1":"1 64474U 25133C   26145.22193044  .00018138  00000+0  62319-3 0  9996","line2":"2 64474  53.1569 121.4728 0001095  82.7679 277.3447 15.30190617 52885","mean_motion":15.30190617,"eccentricity":0.0001095,"inclination_deg":53.1569,"raan_deg":121.4728,"arg_perigee_deg":82.7679,"mean_anomaly_deg":277.3447,"bstar":0.00062319,"rev_number":5288,"period_min":94.105922752498,"perigee_km":474.49264038982,"apogee_km":475.99353062855,"semimajor_km":6853.3800855092,"source":"CELESTRAK","updated_at":"2026-05-25T13:38:20.456164Z"}}